GLOBALSTAR M028 [-]

Last updated on Fri Dec 29 2023 00:02:56 GMT+0000 (Coordinated Universal Time)

1 25875U 99041D 23362.13490023 -.00000100 00000+0 33037-5 0 9990 2 25875 51.9649 354.4110 0063530 345.3966 14.5059 12.50546870123013
UTC large
Height (km)
Speed (km/s)
/
Latitude / Longitude
Inclination (degrees)
Orbital Period (minutes)
Azimuth
Elevation
Range (km)
Doppler Factor

Next 0 passes for location: London (51.5072 / 0.1276)

Sorry there are no passes over London.
GLOBALSTAR M028 [-]